Location: New Plymouth
(39.0670°S, 174.0830°E)
Time: 22:32:40
(UTC+13:00)

ERBS - Pass Details

Date: 24 January 2019
Orbit: 418 x 432 km, 57.0° (Epoch: 16 February)

Event Time Altitude Azimuth Distance (km) Brightness Sun altitude
Rises 22:30:43 0° 214° (SW) 2,444 7.7 -17.4°
Reaches altitude 10° 22:33:06 10° 199° (SSW) 1,569 6.1 -17.8°
Maximum altitude 22:36:03 25° 142° (SE) 949 4.1 -18.2°
Enters shadow 22:36:59 22° 117° (ESE) 1,024 4.0 -18.3°
